Alamosa, CO

11:19 AM MDT on June 28, 2017 (GMT -0600)
San Luis Valley Regional / Bergman Field

Weather History for KALS - October, 2013

Change the Weather History Date:

Tuesday, October 29, 2013

  Actual Average Record
Temperature  
Mean Temperature 42 °F 38 °F  
Max Temperature 55 °F 56 °F 76 °F (1950)
Min Temperature 28 °F 20 °F 4 °F (1993)
Degree Days  
Heating Degree Days 23 27  
Month to date heating degree days 643 623  
Since 1 July heating degree days 940 1054  
Cooling Degree Days 0 0  
Month to date cooling degree days 0 0  
Year to date cooling degree days 113 51  
Moisture  
Dew Point 25 °F    
Average Humidity 55    
Maximum Humidity 85    
Minimum Humidity 24    
Precipitation  
Precipitation 0.04 in 0.02 in 1.10 in (1961)
Month to date precipitation 0.53 0.64  
Year to date precipitation 8.39 6.50  
Snow  
Snow 0.00 in 0.20 in 10.70 in (1961)
Month to date snowfall 3.5 1.9  
Since 1 July snowfall 3.5 1.9  
Since 1 September snowfall 3.5 1.9  
Snow Depth 0.00 in    
Sea Level Pressure  
Sea Level Pressure 29.89 in    
Wind  
Wind Speed 16 mph (SSW)    
Max Wind Speed 32 mph    
Max Gust Speed 40 mph    
Visibility 10 miles    
Events Rain    
T = Trace of Precipitation, MM = Missing Value Source: NWS Daily Summary

Daily Weather History Graph

Daily Weather History Graph

Search for Another Location

Airport or City:

Trip Planner

Search our weather history database for the weather conditions in past years. The results will help you decide how hot, cold, wet, or windy it might be!

Date:

Astronomy

Oct. 29, 2013 Rise Set
Actual Time 7:25 AM MDT 6:08 PM MDT
Civil Twilight 6:58 AM MDT 6:35 PM MDT
Nautical Twilight 6:27 AM MDT 7:05 PM MDT
Astronomical Twilight 5:57 AM MDT 7:36 PM MDT
Moon 2:24 AM MDT (10/29) 3:18 PM MDT (10/29)
Length of Visible Light 11h 36m
Length of Day
10h 42m
Waning Crescent, 24% of the Moon is Illuminated
Oct 29
Waning Crescent
Nov 3
New
Nov 9
First Quarter
Nov 17
Full
Nov 25
Last Quarter

Hourly Weather History & Observations

Time (MDT) Temp. Windchill Dew Point Humidity Pressure Visibility Wind Dir Wind Speed Gust Speed Precip Events Conditions
12:52 AM 34.0 °F 28.8 °F 24.1 °F 67% 29.89 in 10.0 mi NE 5.8 mph - N/A   Clear
1:52 AM 33.1 °F 27.7 °F 23.0 °F 66% 29.90 in 10.0 mi ESE 5.8 mph - N/A   Clear
2:52 AM 28.0 °F 19.3 °F 21.0 °F 75% 29.91 in 10.0 mi ESE 9.2 mph - N/A   Clear
3:52 AM 32.0 °F 26.4 °F 21.9 °F 66% 29.91 in 10.0 mi SSE 5.8 mph - N/A   Clear
4:52 AM 35.1 °F 31.0 °F 21.9 °F 59% 29.89 in 10.0 mi East 4.6 mph - N/A   Clear
5:52 AM 32.0 °F 27.5 °F 21.0 °F 64% 29.93 in 10.0 mi SE 4.6 mph - N/A   Clear
6:52 AM 30.0 °F - 21.0 °F 69% 29.98 in 10.0 mi Calm Calm - N/A   Clear
7:52 AM 35.1 °F 25.5 °F 19.9 °F 54% 29.98 in 10.0 mi South 15.0 mph - N/A   Clear
8:52 AM 44.1 °F 36.5 °F 19.9 °F 38% 29.96 in 10.0 mi South 17.3 mph - N/A   Clear
9:52 AM 48.0 °F - 24.1 °F 39% 29.96 in 10.0 mi SSW 29.9 mph 39.1 mph N/A   Clear
10:52 AM 50.0 °F - 21.9 °F 33% 29.96 in 9.0 mi SSW 25.3 mph 39.1 mph N/A   Clear
11:52 AM 51.1 °F - 19.0 °F 28% 29.88 in 10.0 mi SW 23.0 mph 34.5 mph N/A   Clear
12:52 PM 53.1 °F - 19.0 °F 26% 29.89 in 10.0 mi SW 24.2 mph 33.4 mph N/A   Partly Cloudy
1:52 PM 54.0 °F - 18.0 °F 24% 29.86 in 10.0 mi WSW 28.8 mph 36.8 mph N/A   Clear
2:52 PM 54.0 °F - 19.0 °F 25% 29.86 in 10.0 mi SSW 26.5 mph 33.4 mph N/A   Partly Cloudy
3:52 PM 54.0 °F - 19.9 °F 26% 29.83 in 10.0 mi SSW 26.5 mph 36.8 mph N/A   Clear
4:52 PM 50.0 °F - 23.0 °F 35% 29.81 in 10.0 mi SW 18.4 mph 32.2 mph N/A   Clear
5:52 PM 48.0 °F - 25.0 °F 41% 29.83 in 10.0 mi West 12.7 mph - N/A   Overcast
6:52 PM 45.0 °F 36.2 °F 30.0 °F 56% 29.89 in 10.0 mi SW 24.2 mph - 0.00 in   Overcast
7:52 PM 41.0 °F 32.8 °F 35.1 °F 79% 29.90 in 10.0 mi WSW 16.1 mph - 0.01 in Rain Light Rain
8:33 PM 39.2 °F 29.3 °F 35.6 °F 87% 29.96 in 10.0 mi SW 20.7 mph 27.6 mph 0.01 in Rain Light Rain
8:52 PM 39.0 °F 29.6 °F 36.0 °F 89% 29.85 in 10.0 mi SSW 18.4 mph - 0.03 in Rain Light Rain
9:05 PM 39.2 °F 29.0 °F 35.6 °F 87% 29.95 in 10.0 mi South 21.9 mph 28.8 mph 0.00 in Rain Light Rain
9:52 PM 39.0 °F 31.4 °F 35.1 °F 86% 29.84 in 10.0 mi SSW 12.7 mph - 0.00 in   Overcast
10:52 PM 39.0 °F 29.9 °F 35.1 °F 86% 29.84 in 10.0 mi South 17.3 mph 28.8 mph 0.00 in Rain Light Rain
11:52 PM 36.0 °F 28.0 °F 33.1 °F 89% 29.85 in 10.0 mi South 11.5 mph - 0.00 in   Scattered Clouds